Terug naar catalogus

ASIASAT 2 PKM

ActiefCommunicatieHEO
NORAD 23725·ROCKET BODY·🇨🇳 China

Gelanceerd Nov 28, 1995 vanaf Xichang Satellite Launch Center

Loading…

Volgende Passages (komende 24 uur)

TLE

VersSource: Space-Track

Epoch: Sep 13, 2026, 23:06 UTC

1 23725U 95064C   26256.96271459  .00004492  00000-0  58832-3 0  9995
2 23725  25.7098 170.3898 5505568 196.1130 135.1213  4.82183511451899

Volg ASIASAT 2 PKM in realtime met AllMySat

Download on the App Store